Kalamata, Greece

12:42 AM EEST on May 23, 2017 (GMT +0300)
Kalamata Air Base

Weather History for LGKL - July, 2013

Change the Weather History Date:

Friday, July 5, 2013

  Actual Average Record
Temperature  
Mean Temperature 73 °F -  
Max Temperature 86 °F 88 °F 96 °F (2000)
Min Temperature 60 °F 65 °F 60 °F (2011)
Cooling Degree Days 8    
Growing Degree Days 23 (Base 50)    
Moisture  
Dew Point 55 °F    
Average Humidity 50    
Maximum Humidity 78    
Minimum Humidity 30    
Precipitation  
Precipitation 0.00 in 0.01 in - ()
Sea Level Pressure  
Sea Level Pressure 29.90 in    
Wind  
Wind Speed 4 mph ()    
Max Wind Speed 12 mph    
Max Gust Speed -    
Visibility 6.2 miles    
Events      
Averages and records for this station are not official NWS values.
T = Trace of Precipitation, MM = Missing Value Source: Averaged Metar Reports

Daily Weather History Graph

Daily Weather History Graph

Search for Another Location

Airport or City:

Trip Planner

Search our weather history database for the weather conditions in past years. The results will help you decide how hot, cold, wet, or windy it might be!

Date:

Astronomy

Jul. 05, 2013 Rise Set
Actual Time 6:17 AM EEST 8:55 PM EEST
Civil Twilight 5:47 AM EEST 9:25 PM EEST
Nautical Twilight 5:09 AM EEST 10:03 PM EEST
Astronomical Twilight 4:26 AM EEST 10:46 PM EEST
Moon 4:01 AM EEST (7/5) 6:36 PM EEST (7/5)
Length of Visible Light 15h 38m
Length of Day
14h 37m
Waning Crescent, 8% of the Moon is Illuminated
Jul 5
Waning Crescent
Jul 8
New
Jul 16
First Quarter
Jul 22
Full
Jul 29
Last Quarter

Hourly Weather History & Observations

Time (EEST) Temp. Heat Index Dew Point Humidity Pressure Visibility Wind Dir Wind Speed Gust Speed Precip Events Conditions
12:50 AM 66.2 °F - 53.6 °F 64% 29.92 in - Calm Calm - N/A   Clear
1:50 AM 64.4 °F - 53.6 °F 68% 29.92 in - NW 4.6 mph - N/A   Clear
2:50 AM 64.4 °F - 51.8 °F 64% 29.92 in - Calm Calm - N/A   Clear
3:50 AM 62.6 °F - 53.6 °F 72% 29.89 in - Calm Calm - N/A   Clear
4:50 AM 62.6 °F - 51.8 °F 68% 29.89 in - Calm Calm - N/A   Clear
5:50 AM 62.6 °F - 51.8 °F 68% 29.89 in - WNW 4.6 mph - N/A   Clear
6:20 AM 60.8 °F - 51.8 °F 72% 29.89 in 6.2 mi West 4.6 mph - N/A   Partly Cloudy
6:50 AM 60.8 °F - 51.8 °F 72% 29.89 in - Calm Calm - N/A   Clear
7:20 AM 62.6 °F - 51.8 °F 68% 29.89 in - Calm Calm - N/A   Clear
7:50 AM 68.0 °F - 53.6 °F 60% 29.89 in - Calm Calm - N/A   Clear
8:20 AM 71.6 °F - 53.6 °F 53% 29.89 in - Calm Calm - N/A   Clear
8:50 AM 75.2 °F - 53.6 °F 47% 29.89 in - Calm Calm - N/A   Clear
9:20 AM 77.0 °F - 53.6 °F 44% 29.89 in - Calm Calm - N/A   Clear
9:50 AM 77.0 °F - 59.0 °F 54% 29.89 in - SSE 5.8 mph - N/A   Clear
10:20 AM 78.8 °F - 60.8 °F 54% 29.89 in - SSE 8.1 mph - N/A   Clear
10:50 AM 78.8 °F - 60.8 °F 54% 29.92 in - SSE 8.1 mph - N/A   Clear
11:20 AM 80.6 °F 81.8 °F 62.6 °F 54% 29.89 in - SSE 8.1 mph - N/A   Clear
11:50 AM 80.6 °F 81.1 °F 59.0 °F 48% 29.92 in 6.2 mi SSE 8.1 mph - N/A   Partly Cloudy
12:20 PM 82.4 °F 81.7 °F 55.4 °F 39% 29.92 in 6.2 mi SSE 8.1 mph - N/A   Partly Cloudy
12:50 PM 82.4 °F - 50.0 °F 32% 29.92 in 6.2 mi South 8.1 mph - N/A   Partly Cloudy
1:20 PM 84.2 °F - 51.8 °F 33% 29.92 in 6.2 mi SSE 9.2 mph - N/A   Partly Cloudy
1:50 PM 84.2 °F - 50.0 °F 30% 29.92 in 6.2 mi SSE 9.2 mph - N/A   Partly Cloudy
2:20 PM 84.2 °F - 51.8 °F 33% 29.92 in 6.2 mi South 10.4 mph - N/A   Partly Cloudy
2:50 PM 86.0 °F - 51.8 °F 31% 29.92 in 6.2 mi South 10.4 mph - N/A   Partly Cloudy
3:20 PM 86.0 °F - 51.8 °F 31% 29.89 in 6.2 mi South 10.4 mph - N/A   Partly Cloudy
3:50 PM 86.0 °F - 51.8 °F 31% 29.89 in 6.2 mi South 11.5 mph - N/A   Partly Cloudy
4:20 PM 84.2 °F - 51.8 °F 33% 29.89 in 6.2 mi South 11.5 mph - N/A   Partly Cloudy
4:50 PM 86.0 °F - 51.8 °F 31% 29.89 in 6.2 mi South 11.5 mph - N/A   Partly Cloudy
5:20 PM 86.0 °F - 51.8 °F 31% 29.89 in 6.2 mi SSE 11.5 mph - N/A   Partly Cloudy
5:50 PM 84.2 °F - 51.8 °F 33% 29.89 in 6.2 mi South 11.5 mph - N/A   Partly Cloudy
6:20 PM 84.2 °F - 51.8 °F 33% 29.89 in 6.2 mi SSE 8.1 mph - N/A   Partly Cloudy
6:50 PM 82.4 °F 82.0 °F 57.2 °F 42% 29.89 in 6.2 mi SSE 6.9 mph - N/A   Partly Cloudy
7:20 PM 82.4 °F 82.0 °F 57.2 °F 42% 29.89 in 6.2 mi SSE 5.8 mph - N/A   Partly Cloudy
7:50 PM 80.6 °F 80.8 °F 57.2 °F 45% 29.89 in 6.2 mi SSE 4.6 mph - N/A   Partly Cloudy
8:20 PM 78.8 °F - 57.2 °F 47% 29.89 in 6.2 mi SSE 4.6 mph - N/A   Partly Cloudy
8:50 PM 77.0 °F - 59.0 °F 54% 29.89 in 6.2 mi Calm Calm - N/A   Partly Cloudy
9:50 PM 71.6 °F - 62.6 °F 73% 29.92 in - Calm Calm - N/A   Clear
10:50 PM 68.0 °F - 60.8 °F 78% 29.92 in - Calm Calm - N/A   Clear
11:50 PM 68.0 °F - 59.0 °F 73% 29.92 in - Calm Calm - N/A   Clear